This is the latest recevied weather packets stored in our database for station/object K1BWE-1. If no packets are shown the sender has not sent any weather packets the latest 1 day(s).
| Time | Temp. | Humidity | Pressure | Rain* | Wind** | Luminosity | Snow |
|---|---|---|---|---|---|---|---|
| 1778007174 | 18.89° C | 61% | 1013.9 hPa | 0 mm | 0.89 m/s, 251° | 204 W/m² | - |
| 1778006870 | 19.44° C | 59% | 1013.9 hPa | 0 mm | 0.45 m/s, 241° | 293 W/m² | - |
| 1778006568 | 18.89° C | 62% | 1013.8 hPa | 0 mm | 0.89 m/s, 269° | 404 W/m² | - |
| 1778006264 | 19.44° C | 58% | 1013.9 hPa | 0 mm | 1.34 m/s, 247° | 344 W/m² | - |
| 1778005962 | 19.44° C | 59% | 1014 hPa | 0 mm | 0.89 m/s, 243° | 337 W/m² | - |
| 1778005658 | 19.44° C | 58% | 1014.1 hPa | 0 mm | 2.24 m/s, 299° | 954 W/m² | - |
| 1778005355 | 18.89° C | 64% | 1014 hPa | 0 mm | 0.89 m/s, 234° | 909 W/m² | - |
| 1778005051 | 18.33° C | 66% | 1014 hPa | 0 mm | 0.45 m/s, 209° | 344 W/m² | - |
| 1778004749 | 18.33° C | 64% | 1014.2 hPa | 0 mm | 0.45 m/s, 122° | 253 W/m² | - |
| 1778004445 | 17.78° C | 64% | 1014.3 hPa | 0 mm | 1.79 m/s, 268° | 288 W/m² | - |
| 1778004142 | 18.89° C | 63% | 1014.3 hPa | 0 mm | 1.34 m/s, 241° | 297 W/m² | - |
| 1778003833 | 18.89° C | 61% | 1014.1 hPa | 0 mm | 1.34 m/s, 219° | 453 W/m² | - |
| 1778003529 | 19.44° C | 64% | 1014.2 hPa | 0 mm | 1.34 m/s, 198° | 360 W/m² | - |
| 1778003226 | 17.78° C | 69% | 1014.4 hPa | 0 mm | 0.45 m/s, 196° | 591 W/m² | - |
| 1778002923 | 17.78° C | 67% | 1014.2 hPa | 0 mm | 0.45 m/s, 239° | 342 W/m² | - |
| 1778002619 | 17.78° C | 67% | 1014.2 hPa | 0 mm | 0.45 m/s, 230° | 420 W/m² | - |
| 1778002316 | 17.22° C | 70% | 1014.1 hPa | 0 mm | 0.89 m/s, 263° | 309 W/m² | - |
| 1778002013 | 17.22° C | 70% | 1014.2 hPa | 0 mm | 1.34 m/s, 167° | 356 W/m² | - |
| 1778001709 | 17.78° C | 71% | 1014 hPa | 0 mm | 0.89 m/s, 236° | 365 W/m² | - |
| 1778001404 | 16.67° C | 71% | 1014.2 hPa | 0 mm | 1.34 m/s, 295° | 370 W/m² | - |
| 1778001101 | 16.67° C | 73% | 1014.3 hPa | 0 mm | 0 m/s | 284 W/m² | - |
| 1778000798 | 16.67° C | 74% | 1014.3 hPa | 0 mm | 0.89 m/s, 229° | 288 W/m² | - |
| 1778000494 | 16.67° C | 74% | 1014.1 hPa | 0 mm | 0.45 m/s, 262° | 281 W/m² | - |
| 1778000189 | 17.22° C | 74% | 1014 hPa | 0 mm | 0.45 m/s, 167° | 334 W/m² | - |
| 1777999886 | 17.22° C | 75% | 1014.3 hPa | 0 mm | 0.45 m/s, 280° | 258 W/m² | - |
* Rain latest hour (hover to see other rain measurements)
** Current wind speed in m/s (hover to see current wind gust speed)